Weather reports worldwide

Advertisment
Redesdale Camp, United Kingdom (3230): temperature & dewpoint: 18.11.2020 22:00:00 - 24.11.2020 22:00:00 (GMT)Redesdale Camp, United Kingdom (3230): temperature -20cm & temperature -100cm: 18.11.2020 22:00:00 - 24.11.2020 22:00:00 (GMT)Redesdale Camp, United Kingdom (3230): wind speed & gusts: 18.11.2020 22:00:00 - 24.11.2020 22:00:00 (GMT)Redesdale Camp, United Kingdom (3230): wind direction: 18.11.2020 22:00:00 - 24.11.2020 22:00:00 (GMT)Redesdale Camp, United Kingdom (3230): reduced air pressure: 18.11.2020 22:00:00 - 24.11.2020 22:00:00 (GMT)Redesdale Camp, United Kingdom (3230): visibility: 18.11.2020 22:00:00 - 24.11.2020 22:00:00 (GMT)Redesdale Camp, United Kingdom (3230): precipitation: 18.11.2020 22:00:00 - 24.11.2020 22:00:00 (GMT)
Date & Time tt [°C] td [°C] tt -20cm [°C] tt -100cm [°C] ff [km/h] ff [kn] fx [km/h] fx [kn] dd ppp [hPa] vv [km] rr [mm]
24.11.2020 22:00:00 10,0 7,9 - - 26 14 48 26 SSW 1002,6 35 0,0
24.11.2020 21:00:00 9,8 7,7 - - 31 17 57 31 SSW 1002,5 55 0,0
24.11.2020 20:00:00 9,3 7,0 - - 31 17 54 29 SSW 1002,5 60 0,0
24.11.2020 19:00:00 9,6 6,9 - - 24 13 - - S 1003,3 55 0,0
24.11.2020 18:00:00 9,3 6,5 - - 24 13 - - S 1003,8 70 0,0
24.11.2020 17:00:00 9,1 6,6 - - 21 11 - - S 1004,0 65 0,0
24.11.2020 16:00:00 8,7 6,6 - - 21 11 - - S 1004,4 60 0,0
24.11.2020 15:00:00 9,3 7,5 - - 22 12 - - S 1004,6 55 0,0
24.11.2020 14:00:00 9,7 8,1 - - 21 11 - - S 1006,0 65 0,0
24.11.2020 13:00:00 9,9 8,5 - - 21 11 - - S 1006,5 75 0,0
24.11.2020 12:00:00 9,5 8,8 - - 21 11 - - S 1007,4 28 0,4
24.11.2020 11:00:00 9,8 8,8 - - 22 12 - - SSW 1008,3 45 0,2
24.11.2020 10:00:00 10,1 8,3 - - 22 12 - - SSW 1008,8 75 0,0
24.11.2020 09:00:00 9,8 8,8 8,0 9,2 16 9 - - SSW 1009,3 75 0,0
24.11.2020 08:00:00 10,1 8,8 - - 29 16 55 30 SW 1009,2 20 0,0
24.11.2020 07:00:00 10,6 9,1 - - 26 14 59 32 SW 1009,0 50 0,0
24.11.2020 06:00:00 10,3 9,6 - - 34 18 59 32 SW 1008,9 5 0,0
24.11.2020 05:00:00 10,4 9,8 - - 31 17 65 35 SW 1009,3 5 0,2
24.11.2020 04:00:00 10,5 9,7 - - 35 19 63 34 SW 1009,2 10 0,2
24.11.2020 03:00:00 10,6 9,6 - - 31 17 63 34 SW 1009,6 11 0,0
24.11.2020 02:00:00 10,5 9,6 - - 34 18 61 33 SW 1010,1 5 0,0
24.11.2020 01:00:00 10,4 9,5 - - 29 16 55 30 SW 1010,5 5 0,2
24.11.2020 00:00:00 10,5 9,5 - - 29 16 63 34 SW 1010,8 30 0,0
23.11.2020 23:00:00 10,5 9,6 - - 31 17 63 34 SW 1010,9 13 0,2
23.11.2020 22:00:00 10,4 9,4 - - 31 17 54 29 SW 1011,2 16 0,4
23.11.2020 21:00:00 10,2 9,3 - - 24 13 50 27 SW 1011,3 15 0,0
23.11.2020 20:00:00 10,0 9,2 - - 26 14 48 26 SW 1011,8 35 0,2
23.11.2020 19:00:00 9,6 9,1 - - 28 15 46 25 SSW 1012,3 21 1,0
23.11.2020 18:00:00 8,4 8,4 - - 18 10 - - SSW 1013,2 3,0 0,8
23.11.2020 17:00:00 6,7 6,7 - - 13 7 - - S 1014,6 4,2 1,0
23.11.2020 16:00:00 5,9 5,7 - - 13 7 - - SSW 1015,1 2,8 0,8
23.11.2020 15:00:00 5,8 5,5 - - 15 8 - - S 1015,9 2,6 0,8
23.11.2020 14:00:00 6,1 5,3 - - 21 11 - - SSW 1016,6 5 0,0
23.11.2020 13:00:00 6,2 4,9 - - 18 10 - - SSW 1017,8 8 0,0
23.11.2020 12:00:00 6,6 3,7 - - 29 16 48 26 SW 1018,6 50 0,0
23.11.2020 11:00:00 5,9 3,1 - - 22 12 - - SW 1019,6 75 0,0
23.11.2020 10:00:00 5,8 3,5 - - 16 9 - - SW 1020,4 75 0,0
23.11.2020 09:00:00 5,8 4,4 7,9 9,4 21 11 - - SW 1020,7 55 0,0
23.11.2020 08:00:00 5,5 4,3 - - 11 6 - - SW 1020,5 50 0,0
23.11.2020 07:00:00 5,4 4,1 - - 4 2 - - E 1021,4 60 0,0
23.11.2020 06:00:00 4,7 3,3 - - 4 2 - - N 1022,0 70 0,0
23.11.2020 05:00:00 4,9 3,7 - - 4 2 - - N 1022,4 60 0,0
23.11.2020 04:00:00 4,1 3,3 - - 4 2 - - SSW 1023,0 55 0,0
23.11.2020 03:00:00 3,8 2,8 - - 13 7 - - SW 1022,7 45 0,0
23.11.2020 02:00:00 3,8 2,9 - - 9 5 - - WSW 1022,9 40 0,0
23.11.2020 01:00:00 3,7 2,8 - - 5 3 - - W 1023,4 50 0,0
23.11.2020 00:00:00 3,7 2,7 - - 11 6 63 34 WSW 1023,1 50 0,0
22.11.2020 23:00:00 3,1 2,6 - - 8 4 - - WSW 1023,2 50 0,0
22.11.2020 22:00:00 2,2 1,1 - - 4 2 - - NNW 1023,0 65 0,0
22.11.2020 21:00:00 3,2 2,0 - - 8 4 - - W 1022,7 75 0,0
22.11.2020 20:00:00 2,6 1,6 - - 4 2 - - WSW 1022,7 60 0,0
22.11.2020 19:00:00 4,1 2,7 - - 9 5 - - WSW 1022,5 50 0,0
22.11.2020 18:00:00 4,1 2,8 - - 9 5 - - WSW 1022,1 55 0,0
22.11.2020 17:00:00 3,6 2,2 - - 4 2 - - WSW 1021,9 50 0,0
22.11.2020 16:00:00 4,9 2,7 - - 11 6 - - SW 1021,7 45 0,0
22.11.2020 15:00:00 5,9 3,5 - - 13 7 - - W 1021,6 40 0,0
22.11.2020 14:00:00 6,4 3,9 - - 15 8 - - WSW 1021,7 50 0,0
22.11.2020 13:00:00 6,7 3,6 - - 16 9 - - WSW 1021,9 40 0,0
22.11.2020 12:00:00 6,7 3,7 - - 15 8 - - WSW 1022,2 40 0,0
22.11.2020 11:00:00 5,6 3,1 - - 9 5 - - WSW 1022,3 45 0,0
22.11.2020 10:00:00 4,9 2,9 - - 8 4 - - W 1022,5 40 0,0
22.11.2020 09:00:00 3,4 2,6 8,4 9,4 8 4 - - WSW 1022,2 35 0,0
22.11.2020 08:00:00 3,6 2,1 - - 8 4 - - WSW 1021,3 45 0,0
22.11.2020 07:00:00 4,0 2,2 - - 13 7 - - W 1020,1 45 0,0
22.11.2020 06:00:00 3,7 2,1 - - 9 5 - - WSW 1020,1 45 0,0
22.11.2020 05:00:00 3,6 2,2 - - 11 6 - - W 1019,1 40 0,0
22.11.2020 04:00:00 4,1 2,4 - - 13 7 - - W 1018,6 40 0,0
22.11.2020 03:00:00 3,9 2,5 - - 13 7 - - WSW 1018,2 40 0,0
22.11.2020 02:00:00 4,3 2,6 - - 15 8 - - WSW 1017,8 45 0,0
22.11.2020 01:00:00 4,5 2,4 - - 9 5 - - W 1018,3 45 0,0
22.11.2020 00:00:00 4,9 3,0 - - 11 6 - - WSW 1017,7 50 0,0
21.11.2020 23:00:00 5,2 3,2 - - 15 8 - - WSW 1017,4 45 0,0
21.11.2020 22:00:00 5,6 3,2 - - 16 9 - - WSW 1017,0 50 0,0
21.11.2020 21:00:00 5,6 3,7 - - 15 8 - - WSW 1017,2 50 0,0
21.11.2020 20:00:00 5,4 3,4 - - 11 6 - - WSW 1017,2 55 0,0
21.11.2020 19:00:00 5,8 4,4 - - 11 6 - - WSW 1017,4 50 0,0
21.11.2020 18:00:00 5,8 3,8 - - 8 4 50 27 WSW 1017,0 65 0,0
21.11.2020 17:00:00 7,0 5,2 - - 15 8 - - WSW 1016,7 13 0,0
21.11.2020 16:00:00 6,9 5,2 - - 13 7 - - WSW 1016,3 40 0,0
21.11.2020 15:00:00 7,7 5,1 - - 15 8 - - WSW 1016,3 55 0,0
21.11.2020 14:00:00 8,5 5,7 - - 18 10 - - WSW 1015,8 75 0,0
21.11.2020 13:00:00 8,5 5,5 - - 18 10 - - WSW 1016,0 65 0,0
21.11.2020 12:00:00 9,0 6,3 - - 13 7 - - W 1016,2 75 0,0
21.11.2020 11:00:00 7,7 6,4 - - 13 7 - - WSW 1016,2 75 0,2
21.11.2020 10:00:00 7,5 6,7 - - 8 4 - - WSW 1015,9 13 0,0
21.11.2020 09:00:00 8,0 7,4 8,4 9,5 8 4 52 28 W 1015,1 14 0,4
21.11.2020 08:00:00 9,4 8,7 - - 29 16 61 33 WSW 1014,0 4,5 0,2
21.11.2020 07:00:00 9,7 8,9 - - 31 17 57 31 WSW 1013,3 4,2 0,2
21.11.2020 06:00:00 9,8 9,1 - - 35 19 70 38 WSW 1012,9 3,4 0,2
21.11.2020 05:00:00 9,8 9,1 - - 35 19 65 35 SW 1013,1 2,2 0,2
21.11.2020 04:00:00 9,9 9,2 - - 35 19 63 34 SW 1013,5 3,4 0,2
21.11.2020 03:00:00 9,9 9,3 - - 35 19 59 32 SW 1014,3 2,0 0,4
21.11.2020 02:00:00 10,1 9,3 - - 31 17 59 32 SW 1014,8 4,7 0,2
21.11.2020 01:00:00 9,9 9,3 - - 29 16 54 29 SW 1015,6 3,4 0,2
21.11.2020 00:00:00 9,8 9,1 - - 24 13 57 31 SW 1016,7 4,8 0,0
20.11.2020 23:00:00 9,8 8,8 - - 28 15 55 30 WSW 1016,8 12 0,0
20.11.2020 22:00:00 10,0 8,9 - - 31 17 67 36 SW 1017,7 10 0,2
20.11.2020 21:00:00 10,1 9,0 - - 37 20 68 37 SW 1017,6 9 0,0
20.11.2020 20:00:00 10,3 9,4 - - 31 17 59 32 SW 1017,9 19 0,0
20.11.2020 19:00:00 10,4 9,7 - - 29 16 52 28 WSW 1018,2 17 0,0
20.11.2020 18:00:00 10,4 9,8 - - 26 14 - - WSW 1018,5 3,4 0,4
20.11.2020 17:00:00 10,5 10,2 - - 18 10 - - WSW 1019,2 3,8 0,0
20.11.2020 16:00:00 9,5 9,1 - - 13 7 - - SW 1019,6 4,4 0,0
20.11.2020 15:00:00 8,5 8,3 - - 5 3 - - SE 1019,9 4,8 0,0
20.11.2020 14:00:00 8,2 7,8 - - 9 5 - - SSE 1021,2 6 0,0
20.11.2020 13:00:00 7,6 7,3 - - 9 5 - - S 1022,6 75 0,2
20.11.2020 12:00:00 6,7 6,7 - - 4 2 - - SSW 1024,1 21 0,2
20.11.2020 11:00:00 4,9 4,8 - - 9 5 - - E 1025,0 11 0,2
20.11.2020 10:00:00 3,2 2,8 - - 4 2 - - SE 1025,6 13 0,0
20.11.2020 09:00:00 1,6 1,0 8,5 9,7 8 4 - - S 1026,4 35 0,0
20.11.2020 08:00:00 1,2 0,6 - - 2 1 - - W 1027,5 50 0,0
20.11.2020 07:00:00 0,7 0,2 - - 5 3 - - ESE 1028,0 55 0,0
20.11.2020 06:00:00 -0,3 -0,4 - - 5 3 - - SE 1028,5 45 0,0
20.11.2020 05:00:00 -1,2 -1,3 - - 0 0 - - N 1029,4 45 0,0
20.11.2020 04:00:00 -2,0 -2,2 - - 5 3 - - N 1030,3 55 0,0
20.11.2020 03:00:00 -1,9 -2,4 - - 8 4 - - N 1030,8 55 0,0
20.11.2020 02:00:00 -0,3 -1,0 - - 2 1 - - NNE 1031,0 65 0,0
20.11.2020 01:00:00 0,1 -1,3 - - 4 2 - - N 1031,2 65 0,0
20.11.2020 00:00:00 0,9 -0,2 - - 8 4 57 31 WSW 1032,0 75 0,0
19.11.2020 23:00:00 -0,3 -1,3 - - 2 1 - - NE 1032,5 70 0,0
19.11.2020 22:00:00 0,1 -1,6 - - 4 2 - - ENE 1032,3 75 0,0
19.11.2020 21:00:00 0,5 -1,9 - - 4 2 - - SSW 1032,2 75 0,0
19.11.2020 20:00:00 0,7 -2,0 - - 8 4 - - NW 1032,0 75 0,0
19.11.2020 19:00:00 1,0 -1,9 - - 5 3 - - W 1031,5 75 0,0
19.11.2020 18:00:00 0,7 -2,0 - - 4 2 - - W 1031,2 75 0,0
19.11.2020 17:00:00 1,6 -1,1 - - 5 3 - - NW 1030,9 75 0,0
19.11.2020 16:00:00 1,6 -2,2 - - 4 2 - - W 1030,4 75 0,0
19.11.2020 15:00:00 3,9 -1,4 - - 8 4 - - NNW 1028,7 75 0,0
19.11.2020 14:00:00 6,4 -1,0 - - 9 5 - - W 1028,3 75 0,0
19.11.2020 13:00:00 5,3 -1,8 - - 9 5 - - NW 1028,5 75 0,0
19.11.2020 12:00:00 4,5 -1,8 - - 13 7 - - NW 1027,4 35 0,0
19.11.2020 11:00:00 4,2 -1,3 - - 9 5 - - WNW 1026,5 75 0,0
19.11.2020 10:00:00 3,3 -1,1 - - 9 5 - - NNW 1024,6 65 0,0
19.11.2020 09:00:00 2,3 -1,2 9,2 9,7 11 6 - - NW 1023,1 65 0,0
19.11.2020 08:00:00 1,8 -1,0 - - 11 6 - - NNW 1021,8 55 0,0
19.11.2020 07:00:00 2,8 -0,6 - - 11 6 - - NW 1020,7 60 0,0
19.11.2020 06:00:00 3,4 0,0 - - 15 8 - - NNW 1018,6 60 0,0
19.11.2020 05:00:00 4,3 1,7 - - 15 8 46 25 NNW 1016,4 75 0,0
19.11.2020 04:00:00 4,8 2,2 - - 29 16 50 27 N 1013,2 75 0,0
19.11.2020 03:00:00 5,6 2,4 - - 42 23 59 32 N 1010,5 75 0,0
19.11.2020 02:00:00 6,4 4,8 - - 13 7 - - NNW 1008,0 40 0,0
19.11.2020 01:00:00 6,4 4,5 - - 8 4 - - NW 1005,6 75 0,0
19.11.2020 00:00:00 6,6 5,2 - - 9 5 - - W 1004,0 55 0,0
18.11.2020 23:00:00 6,9 5,5 - - 15 8 - - WSW 1003,5 40 0,0
18.11.2020 22:00:00 6,5 5,6 - - 22 12 52 28 WSW 1002,9 14 0,4

tt = temperature
td = dewpoint
tt -20cm = temperature -20cm
tt -100cm = temperature -100cm
ff = wind speed
fx = gusts
dd = wind direction
ppp = reduced air pressure
vv = visibility
rr = precipitation

Next stations